This is the latest recevied weather packets stored in our database for station/object YO8PIC-4. If no packets are shown the sender has not sent any weather packets the latest 10 day(s).
| Time | Temp. | Humidity | Pressure | Rain* | Wind** | Luminosity | Snow |
|---|---|---|---|---|---|---|---|
| 1778115166 | 23.89° C | 56% | 1010.7 hPa | - | - | - | - |
| 1778114593 | 24.44° C | 56% | 1011.8 hPa | - | - | - | - |
| 1778114560 | 24.44° C | 56% | 1011.8 hPa | - | - | - | - |
| 1778113960 | 24.44° C | 56% | 1011.7 hPa | - | - | - | - |
| 1778113360 | 24.44° C | 56% | 1011.7 hPa | - | - | - | - |
| 1778112760 | 24.44° C | 55% | 1011.7 hPa | - | - | - | - |
| 1778112192 | 24.44° C | 56% | 1011.7 hPa | - | - | - | - |
| 1778112159 | 24.44° C | 56% | 1011.7 hPa | - | - | - | - |
| 1778111559 | 24.44° C | 55% | 1011.8 hPa | - | - | - | - |
| 1778110959 | 24.44° C | 55% | 1011.8 hPa | - | - | - | - |
| 1778110359 | 24.44° C | 55% | 1011.7 hPa | - | - | - | - |
| 1778109759 | 24.44° C | 55% | 1011.7 hPa | - | - | - | - |
| 1778109159 | 24.44° C | 55% | 1011.8 hPa | - | - | - | - |
| 1778108559 | 24.44° C | 55% | 1011.7 hPa | - | - | - | - |
| 1778107992 | 24.44° C | 55% | 1011.7 hPa | - | - | - | - |
| 1778107958 | 24.44° C | 55% | 1011.7 hPa | - | - | - | - |
| 1778107358 | 24.44° C | 54% | 1011.7 hPa | - | - | - | - |
| 1778106758 | 24.44° C | 54% | 1011.6 hPa | - | - | - | - |
| 1778106158 | 24.44° C | 54% | 1011.6 hPa | - | - | - | - |
| 1778105593 | 24.44° C | 53% | 1011.6 hPa | - | - | - | - |
| 1778105558 | 24.44° C | 53% | 1011.6 hPa | - | - | - | - |
| 1778104993 | 24.44° C | 47% | 1011.5 hPa | - | - | - | - |
| 1778104958 | 24.44° C | 47% | 1011.5 hPa | - | - | - | - |
| 1778104358 | 24.44° C | 52% | 1011.6 hPa | - | - | - | - |
| 1778103757 | 24.44° C | 50% | 1011.5 hPa | - | - | - | - |
* Rain since midnight (hover to see other rain measurements)
** Current wind speed in m/s (hover to see current wind gust speed)